Time,TemperatureF,DewpointF,PressureIn,WindDirection,WindDirectionDegrees,WindSpeedMPH,WindSpeedGustMPH,Humidity,HourlyPrecipIn,Conditions,Clouds,dailyrainin,SoftwareType,DateUTC
2013-02-24 00:05:00,48.2,42.0,30.14,ESE,117,5.0,6.0,79,0.00,,,0.00,Wunderground v.1.15,2013-02-23 10:05:00,
2013-02-24 00:14:00,48.1,42.2,30.13,SSE,148,6.0,6.0,80,0.00,,,0.00,Wunderground v.1.15,2013-02-23 10:14:00,
2013-02-24 00:24:00,48.1,42.5,30.13,SE,142,7.0,7.0,81,0.00,,,0.00,Wunderground v.1.15,2013-02-23 10:24:00,
2013-02-24 00:34:00,47.8,42.6,30.13,South,170,8.0,10.0,82,0.00,,,0.00,Wunderground v.1.15,2013-02-23 10:34:00,
2013-02-24 00:39:00,47.7,42.5,30.13,South,181,8.0,8.0,82,0.00,,,0.00,Wunderground v.1.15,2013-02-23 10:39:00,
2013-02-24 00:49:00,47.8,42.6,30.14,ESE,112,6.0,6.0,82,0.00,,,0.00,Wunderground v.1.15,2013-02-23 10:49:00,
2013-02-24 00:54:00,47.8,42.6,30.14,SSE,153,7.0,7.0,82,0.00,,,0.00,Wunderground v.1.15,2013-02-23 10:54:00,
2013-02-24 01:05:00,47.5,42.3,30.14,SE,124,5.0,6.0,82,0.00,,,0.00,Wunderground v.1.15,2013-02-23 11:05:00,
2013-02-24 01:14:00,47.4,42.2,30.13,SE,132,6.0,7.0,82,0.00,,,0.00,Wunderground v.1.15,2013-02-23 11:14:00,
2013-02-24 01:19:00,47.2,42.0,30.13,East,96,5.0,5.0,82,0.00,,,0.00,Wunderground v.1.15,2013-02-23 11:19:00,
2013-02-24 01:24:00,47.1,41.9,30.13,East,95,6.0,6.0,82,0.00,,,0.00,Wunderground v.1.15,2013-02-23 11:24:00,
2013-02-24 01:34:00,46.9,42.0,30.13,SE,132,5.0,6.0,83,0.00,,,0.00,Wunderground v.1.15,2013-02-23 11:34:00,
2013-02-24 01:44:00,46.6,41.7,30.13,SSE,166,5.0,7.0,83,0.00,,,0.00,Wunderground v.1.15,2013-02-23 11:44:00,
2013-02-24 01:54:00,46.5,41.6,30.14,ESE,108,4.0,7.0,83,0.00,,,0.00,Wunderground v.1.15,2013-02-23 11:54:00,
2013-02-24 02:05:00,46.3,41.7,30.14,SE,128,4.0,6.0,84,0.00,,,0.00,Wunderground v.1.15,2013-02-23 12:05:00,
2013-02-24 02:14:00,46.0,41.4,30.14,SE,144,4.0,5.0,84,0.00,,,0.00,Wunderground v.1.15,2013-02-23 12:14:00,
2013-02-24 02:19:00,45.8,41.5,30.13,ESE,121,4.0,4.0,85,0.00,,,0.00,Wunderground v.1.15,2013-02-23 12:19:00,
2013-02-24 02:29:00,45.5,41.3,30.13,SE,136,4.0,4.0,85,0.00,,,0.00,Wunderground v.1.15,2013-02-23 12:29:00,
2013-02-24 02:39:00,45.1,41.2,30.13,ESE,106,4.0,4.0,86,0.00,,,0.00,Wunderground v.1.15,2013-02-23 12:39:00,
2013-02-24 02:54:00,44.8,40.9,30.14,SE,132,3.0,3.0,86,0.00,,,0.00,Wunderground v.1.15,2013-02-23 12:54:00,
2013-02-24 02:59:00,44.7,41.1,30.14,ESE,103,3.0,3.0,87,0.00,,,0.00,Wunderground v.1.15,2013-02-23 12:59:00,
2013-02-24 03:05:00,44.7,41.1,30.14,East,97,3.0,3.0,87,0.00,,,0.00,Wunderground v.1.15,2013-02-23 13:05:00,
2013-02-24 03:14:00,44.7,41.1,30.14,SE,131,3.0,6.0,87,0.00,,,0.00,Wunderground v.1.15,2013-02-23 13:14:00,
2013-02-24 03:24:00,44.4,40.8,30.14,SE,143,3.0,3.0,87,0.00,,,0.00,Wunderground v.1.15,2013-02-23 13:24:00,
2013-02-24 03:34:00,44.2,40.9,30.14,SE,142,2.0,3.0,88,0.00,,,0.00,Wunderground v.1.15,2013-02-23 13:34:00,
2013-02-24 03:44:00,44.1,40.8,30.14,SSE,147,3.0,3.0,88,0.00,,,0.00,Wunderground v.1.15,2013-02-23 13:44:00,
2013-02-24 03:54:00,43.8,40.8,30.15,ESE,115,2.0,5.0,89,0.00,,,0.00,Wunderground v.1.15,2013-02-23 13:54:00,
2013-02-24 03:59:00,43.7,40.7,30.15,SE,142,2.0,2.0,89,0.00,,,0.00,Wunderground v.1.15,2013-02-23 13:59:00,
2013-02-24 04:05:00,43.6,40.9,30.15,SE,127,2.0,3.0,90,0.00,,,0.00,Wunderground v.1.15,2013-02-23 14:05:00,
2013-02-24 04:14:00,43.4,40.7,30.16,East,86,3.0,3.0,90,0.00,,,0.00,Wunderground v.1.15,2013-02-23 14:14:00,
2013-02-24 04:24:00,43.6,41.1,30.16,ENE,76,2.0,4.0,91,0.00,,,0.00,Wunderground v.1.15,2013-02-23 14:24:00,
2013-02-24 04:29:00,43.7,41.2,30.17,SE,127,2.0,4.0,91,0.00,,,0.00,Wunderground v.1.15,2013-02-23 14:29:00,
2013-02-24 04:34:00,43.6,41.1,30.17,ESE,108,2.0,4.0,91,0.00,,,0.00,Wunderground v.1.15,2013-02-23 14:34:00,
2013-02-24 04:44:00,43.3,40.8,30.17,ESE,103,2.0,2.0,91,0.00,,,0.00,Wunderground v.1.15,2013-02-23 14:44:00,
2013-02-24 04:49:00,43.1,40.7,30.17,NNW,328,1.0,1.0,91,0.00,,,0.00,Wunderground v.1.15,2013-02-23 14:49:00,
2013-02-24 04:59:00,42.8,40.6,30.18,NNW,330,0.0,0.0,92,0.00,,,0.00,Wunderground v.1.15,2013-02-23 14:59:00,
2013-02-24 05:05:00,43.1,41.2,30.18,ESE,115,1.0,1.0,93,0.00,,,0.00,Wunderground v.1.15,2013-02-23 15:05:00,
2013-02-24 05:14:00,43.5,41.6,30.18,East,95,1.0,3.0,93,0.00,,,0.00,Wunderground v.1.15,2013-02-23 15:14:00,
2013-02-24 05:24:00,44.0,42.1,30.19,East,99,1.0,1.0,93,0.00,,,0.00,Wunderground v.1.15,2013-02-23 15:24:00,
2013-02-24 05:29:00,44.1,41.9,30.19,East,99,0.0,0.0,92,0.00,,,0.00,Wunderground v.1.15,2013-02-23 15:29:00,
2013-02-24 05:39:00,44.1,41.9,30.19,East,99,0.0,0.0,92,0.00,,,0.00,Wunderground v.1.15,2013-02-23 15:39:00,
2013-02-24 05:44:00,44.1,41.6,30.20,West,266,0.0,2.0,91,0.00,,,0.00,Wunderground v.1.15,2013-02-23 15:44:00,
2013-02-24 05:54:00,44.2,41.7,30.20,WNW,283,1.0,1.0,91,0.00,,,0.00,Wunderground v.1.15,2013-02-23 15:54:00,
2013-02-24 05:59:00,44.4,41.9,30.21,West,269,1.0,2.0,91,0.00,,,0.00,Wunderground v.1.15,2013-02-23 15:59:00,
2013-02-24 06:04:00,44.7,42.2,30.21,WNW,298,2.0,2.0,91,0.00,,,0.00,Wunderground v.1.15,2013-02-23 16:04:00,
2013-02-24 06:09:00,45.1,42.6,30.21,West,264,2.0,3.0,91,0.00,,,0.00,Wunderground v.1.15,2013-02-23 16:09:00,
2013-02-24 06:19:00,45.8,42.4,30.22,West,269,3.0,4.0,88,0.00,,,0.00,Wunderground v.1.15,2013-02-23 16:19:00,
2013-02-24 06:24:00,46.1,42.4,30.22,West,276,3.0,4.0,87,0.00,,,0.00,Wunderground v.1.15,2013-02-23 16:24:00,
2013-02-24 06:34:00,46.5,42.2,30.23,WNW,300,3.0,3.0,85,0.00,,,0.00,Wunderground v.1.15,2013-02-23 16:34:00,
2013-02-24 06:44:00,47.1,42.8,30.23,NW,304,4.0,4.0,85,0.00,,,0.00,Wunderground v.1.15,2013-02-23 16:44:00,
2013-02-24 06:54:00,47.2,42.6,30.23,WNW,295,4.0,8.0,84,0.00,,,0.00,Wunderground v.1.15,2013-02-23 16:54:00,
2013-02-24 07:05:00,47.5,42.9,30.23,NW,307,6.0,6.0,84,0.00,,,0.00,Wunderground v.1.15,2013-02-23 17:05:00,
2013-02-24 07:14:00,47.7,42.8,30.24,NW,323,6.0,6.0,83,0.00,,,0.00,Wunderground v.1.15,2013-02-23 17:14:00,
2013-02-24 07:19:00,47.7,43.1,30.23,NW,314,5.0,8.0,84,0.00,,,0.00,Wunderground v.1.15,2013-02-23 17:19:00,
2013-02-24 07:24:00,48.2,43.6,30.24,WNW,295,5.0,8.0,84,0.00,,,0.00,Wunderground v.1.15,2013-02-23 17:24:00,
2013-02-24 07:34:00,48.8,43.9,30.23,NNW,335,6.0,6.0,83,0.00,,,0.00,Wunderground v.1.15,2013-02-23 17:34:00,
2013-02-24 07:39:00,49.4,44.1,30.23,NNE,16,5.0,5.0,82,0.00,,,0.00,Wunderground v.1.15,2013-02-23 17:39:00,
2013-02-24 07:49:00,50.2,42.6,30.23,NNW,340,6.0,6.0,75,0.00,,,0.00,Wunderground v.1.15,2013-02-23 17:49:00,
2013-02-24 07:54:00,50.6,41.2,30.23,WNW,291,7.0,7.0,70,0.00,,,0.00,Wunderground v.1.15,2013-02-23 17:54:00,
2013-02-24 08:09:00,51.1,37.7,30.23,WNW,300,8.0,11.0,60,0.00,,,0.00,Wunderground v.1.15,2013-02-23 18:09:00,
2013-02-24 08:19:00,51.2,36.0,30.23,North,1,10.0,11.0,56,0.00,,,0.00,Wunderground v.1.15,2013-02-23 18:19:00,
2013-02-24 08:24:00,51.6,36.4,30.23,NNE,23,10.0,11.0,56,0.00,,,0.00,Wunderground v.1.15,2013-02-23 18:24:00,
2013-02-24 08:34:00,52.1,35.0,30.23,NNE,13,9.0,9.0,52,0.00,,,0.00,Wunderground v.1.15,2013-02-23 18:34:00,
2013-02-24 08:39:00,52.2,33.6,30.24,NW,316,9.0,13.0,49,0.00,,,0.00,Wunderground v.1.15,2013-02-23 18:39:00,
2013-02-24 08:49:00,52.7,34.1,30.23,WNW,293,8.0,8.0,49,0.00,,,0.00,Wunderground v.1.15,2013-02-23 18:49:00,
2013-02-24 08:54:00,52.8,32.6,30.23,NW,311,9.0,9.0,46,0.00,,,0.00,Wunderground v.1.15,2013-02-23 18:54:00,
2013-02-24 09:04:00,53.4,32.6,30.23,NW,316,8.0,9.0,45,0.00,,,0.00,Wunderground v.1.15,2013-02-23 19:04:00,
2013-02-24 09:14:00,53.7,33.4,30.23,NW,316,8.0,8.0,46,0.00,,,0.00,Wunderground v.1.15,2013-02-23 19:14:00,
2013-02-24 09:24:00,53.7,31.7,30.23,NW,319,9.0,10.0,43,0.00,,,0.00,Wunderground v.1.15,2013-02-23 19:24:00,
2013-02-24 09:29:00,54.2,31.0,30.23,NW,312,9.0,10.0,41,0.00,,,0.00,Wunderground v.1.15,2013-02-23 19:29:00,
2013-02-24 09:34:00,54.3,30.5,30.23,NW,317,9.0,15.0,40,0.00,,,0.00,Wunderground v.1.15,2013-02-23 19:34:00,
2013-02-24 09:44:00,54.7,30.2,30.22,WNW,296,10.0,15.0,39,0.00,,,0.00,Wunderground v.1.15,2013-02-23 19:44:00,
2013-02-24 09:54:00,54.8,30.3,30.22,WSW,248,9.0,15.0,39,0.00,,,0.00,Wunderground v.1.15,2013-02-23 19:54:00,
2013-02-24 09:59:00,55.0,30.5,30.22,NNW,343,9.0,9.0,39,0.00,,,0.00,Wunderground v.1.15,2013-02-23 19:59:00,
2013-02-24 10:05:00,55.4,30.8,30.22,NNW,342,9.0,9.0,39,0.00,,,0.00,Wunderground v.1.15,2013-02-23 20:05:00,
2013-02-24 10:14:00,55.7,30.5,30.21,West,279,8.0,10.0,38,0.00,,,0.00,Wunderground v.1.15,2013-02-23 20:14:00,
2013-02-24 10:19:00,55.7,29.8,30.21,WNW,294,8.0,8.0,37,0.00,,,0.00,Wunderground v.1.15,2013-02-23 20:19:00,
2013-02-24 10:29:00,55.9,28.6,30.20,WNW,293,8.0,10.0,35,0.00,,,0.00,Wunderground v.1.15,2013-02-23 20:29:00,
2013-02-24 10:34:00,55.9,29.3,30.20,WSW,242,9.0,10.0,36,0.00,,,0.00,Wunderground v.1.15,2013-02-23 20:34:00,
2013-02-24 10:39:00,56.1,29.5,30.20,WNW,283,9.0,9.0,36,0.00,,,0.00,Wunderground v.1.15,2013-02-23 20:39:00,
2013-02-24 10:49:00,56.6,28.5,30.19,NW,304,9.0,9.0,34,0.00,,,0.00,Wunderground v.1.15,2013-02-23 20:49:00,
2013-02-24 10:54:00,56.3,29.0,30.19,WSW,247,10.0,15.0,35,0.00,,,0.00,Wunderground v.1.15,2013-02-23 20:54:00,
2013-02-24 11:04:00,56.6,29.2,30.19,WNW,303,10.0,11.0,35,0.00,,,0.00,Wunderground v.1.15,2013-02-23 21:04:00,
2013-02-24 11:14:00,57.1,29.0,30.18,WNW,293,8.0,8.0,34,0.00,,,0.00,Wunderground v.1.15,2013-02-23 21:14:00,
2013-02-24 11:24:00,57.2,29.1,30.17,NW,324,10.0,12.0,34,0.00,,,0.00,Wunderground v.1.15,2013-02-23 21:24:00,
2013-02-24 11:34:00,57.4,28.5,30.17,WNW,294,10.0,10.0,33,0.00,,,0.00,Wunderground v.1.15,2013-02-23 21:34:00,
2013-02-24 11:44:00,57.5,28.6,30.17,North,359,9.0,10.0,33,0.00,,,0.00,Wunderground v.1.15,2013-02-23 21:44:00,
2013-02-24 11:54:00,57.6,30.1,30.16,WNW,284,10.0,14.0,35,0.00,,,0.00,Wunderground v.1.15,2013-02-23 21:54:00,
2013-02-24 12:05:00,57.7,30.2,30.16,WNW,297,10.0,11.0,35,0.00,,,0.00,Wunderground v.1.15,2013-02-23 22:05:00,
2013-02-24 12:14:00,58.2,29.9,30.16,West,277,8.0,11.0,34,0.00,,,0.00,Wunderground v.1.15,2013-02-23 22:14:00,
2013-02-24 12:19:00,58.2,29.9,30.16,WNW,285,9.0,9.0,34,0.00,,,0.00,Wunderground v.1.15,2013-02-23 22:19:00,
2013-02-24 12:24:00,58.3,30.0,30.16,NW,311,9.0,10.0,34,0.00,,,0.00,Wunderground v.1.15,2013-02-23 22:24:00,
2013-02-24 12:34:00,58.6,29.6,30.15,WNW,295,10.0,10.0,33,0.00,,,0.00,Wunderground v.1.15,2013-02-23 22:34:00,
2013-02-24 12:39:00,58.7,28.9,30.15,West,274,10.0,10.0,32,0.00,,,0.00,Wunderground v.1.15,2013-02-23 22:39:00,
2013-02-24 12:49:00,58.9,28.3,30.15,WNW,285,10.0,13.0,31,0.00,,,0.00,Wunderground v.1.15,2013-02-23 22:49:00,
2013-02-24 12:54:00,59.0,28.4,30.15,WNW,295,11.0,13.0,31,0.00,,,0.00,Wunderground v.1.15,2013-02-23 22:54:00,
2013-02-24 13:04:00,59.0,28.4,30.15,WNW,295,11.0,12.0,31,0.00,,,0.00,Wunderground v.1.15,2013-02-23 23:04:00,
2013-02-24 13:14:00,59.1,27.7,30.14,NW,309,10.0,11.0,30,0.00,,,0.00,Wunderground v.1.15,2013-02-23 23:14:00,
2013-02-24 13:24:00,59.1,27.7,30.14,NNW,340,10.0,11.0,30,0.00,,,0.00,Wunderground v.1.15,2013-02-23 23:24:00,
2013-02-24 13:29:00,58.8,27.4,30.14,NW,313,10.0,14.0,30,0.00,,,0.00,Wunderground v.1.15,2013-02-23 23:29:00,
2013-02-24 13:34:00,58.8,26.6,30.14,WNW,302,11.0,14.0,29,0.00,,,0.00,Wunderground v.1.15,2013-02-23 23:34:00,
2013-02-24 13:44:00,58.5,26.3,30.14,NW,325,11.0,11.0,29,0.00,,,0.00,Wunderground v.1.15,2013-02-23 23:44:00,
2013-02-24 13:54:00,58.5,27.1,30.15,WNW,302,10.0,11.0,30,0.00,,,0.00,Wunderground v.1.15,2013-02-23 23:54:00,
2013-02-24 13:59:00,58.5,26.3,30.15,North,9,11.0,16.0,29,0.00,,,0.00,Wunderground v.1.15,2013-02-23 23:59:00,
2013-02-24 14:05:00,58.3,27.0,30.15,WNW,298,11.0,16.0,30,0.00,,,0.00,Wunderground v.1.15,2013-02-24 00:05:00,
2013-02-24 14:14:00,58.6,27.2,30.15,NNW,345,8.0,10.0,30,0.00,,,0.00,Wunderground v.1.15,2013-02-24 00:14:00,
2013-02-24 14:24:00,58.3,27.0,30.15,NNW,340,10.0,10.0,30,0.00,,,0.00,Wunderground v.1.15,2013-02-24 00:24:00,
2013-02-24 14:29:00,58.4,27.9,30.15,NW,321,9.0,9.0,31,0.00,,,0.00,Wunderground v.1.15,2013-02-24 00:29:00,
2013-02-24 14:39:00,58.1,27.6,30.15,NW,304,9.0,10.0,31,0.00,,,0.00,Wunderground v.1.15,2013-02-24 00:39:00,
2013-02-24 14:44:00,58.1,27.6,30.14,WNW,293,8.0,10.0,31,0.00,,,0.00,Wunderground v.1.15,2013-02-24 00:44:00,
2013-02-24 14:54:00,57.8,27.3,30.15,WNW,283,9.0,9.0,31,0.00,,,0.00,Wunderground v.1.15,2013-02-24 00:54:00,
2013-02-24 14:59:00,57.8,28.1,30.15,WNW,290,8.0,8.0,32,0.00,,,0.00,Wunderground v.1.15,2013-02-24 00:59:00,
2013-02-24 15:09:00,57.5,27.8,30.15,WNW,289,5.0,6.0,32,0.00,,,0.00,Wunderground v.1.15,2013-02-24 01:09:00,
2013-02-24 15:19:00,57.2,29.1,30.15,WNW,298,5.0,5.0,34,0.00,,,0.00,Wunderground v.1.15,2013-02-24 01:19:00,
2013-02-24 15:29:00,56.5,29.1,30.16,NNW,339,5.0,5.0,35,0.00,,,0.00,Wunderground v.1.15,2013-02-24 01:29:00,
2013-02-24 15:39:00,55.8,29.9,30.16,WNW,292,4.0,4.0,37,0.00,,,0.00,Wunderground v.1.15,2013-02-24 01:39:00,
2013-02-24 15:49:00,55.0,29.2,30.16,NW,315,3.0,3.0,37,0.00,,,0.00,Wunderground v.1.15,2013-02-24 01:49:00,
2013-02-24 15:59:00,54.4,29.3,30.16,WNW,298,4.0,4.0,38,0.00,,,0.00,Wunderground v.1.15,2013-02-24 01:59:00,
2013-02-24 16:09:00,53.6,29.8,30.17,WNW,298,2.0,2.0,40,0.00,,,0.00,Wunderground v.1.15,2013-02-24 02:09:00,
2013-02-24 16:19:00,53.0,29.3,30.17,WNW,292,2.0,3.0,40,0.00,,,0.00,Wunderground v.1.15,2013-02-24 02:19:00,
2013-02-24 16:24:00,52.8,29.1,30.17,NW,316,3.0,5.0,40,0.00,,,0.00,Wunderground v.1.15,2013-02-24 02:24:00,
2013-02-24 16:34:00,52.6,28.3,30.17,NW,312,5.0,5.0,39,0.00,,,0.00,Wunderground v.1.15,2013-02-24 02:34:00,
2013-02-24 16:39:00,52.6,28.3,30.17,WNW,292,5.0,5.0,39,0.00,,,0.00,Wunderground v.1.15,2013-02-24 02:39:00,
2013-02-24 16:49:00,52.5,28.2,30.17,WNW,301,6.0,6.0,39,0.00,,,0.00,Wunderground v.1.15,2013-02-24 02:49:00,
2013-02-24 16:54:00,52.4,28.8,30.17,NW,326,7.0,7.0,40,0.00,,,0.00,Wunderground v.1.15,2013-02-24 02:54:00,
2013-02-24 17:05:00,52.2,28.6,30.17,NNW,338,6.0,7.0,40,0.00,,,0.00,Wunderground v.1.15,2013-02-24 03:05:00,
2013-02-24 17:14:00,52.1,28.5,30.17,North,349,7.0,10.0,40,0.00,,,0.00,Wunderground v.1.15,2013-02-24 03:14:00,
2013-02-24 17:24:00,51.9,28.3,30.17,NNE,13,7.0,9.0,40,0.00,,,0.00,Wunderground v.1.15,2013-02-24 03:24:00,
2013-02-24 17:34:00,51.2,28.3,30.17,NNW,347,6.0,6.0,41,0.00,,,0.00,Wunderground v.1.15,2013-02-24 03:34:00,
2013-02-24 17:39:00,50.9,28.6,30.17,North,5,6.0,6.0,42,0.00,,,0.00,Wunderground v.1.15,2013-02-24 03:39:00,
2013-02-24 17:49:00,50.2,29.1,30.17,NNW,332,6.0,6.0,44,0.00,,,0.00,Wunderground v.1.15,2013-02-24 03:49:00,
2013-02-24 17:59:00,49.9,28.8,30.17,NNW,337,7.0,7.0,44,0.00,,,0.00,Wunderground v.1.15,2013-02-24 03:59:00,
2013-02-24 18:05:00,49.9,29.4,30.18,NW,322,7.0,9.0,45,0.00,,,0.00,Wunderground v.1.15,2013-02-24 04:05:00,
2013-02-24 18:14:00,49.7,29.7,30.18,NW,321,6.0,7.0,46,0.00,,,0.00,Wunderground v.1.15,2013-02-24 04:14:00,
2013-02-24 18:19:00,49.5,29.6,30.17,NW,307,5.0,5.0,46,0.00,,,0.00,Wunderground v.1.15,2013-02-24 04:19:00,
2013-02-24 18:24:00,49.2,29.3,30.17,WNW,293,5.0,5.0,46,0.00,,,0.00,Wunderground v.1.15,2013-02-24 04:24:00,
2013-02-24 18:34:00,48.7,29.4,30.18,WNW,302,4.0,5.0,47,0.00,,,0.00,Wunderground v.1.15,2013-02-24 04:34:00,
2013-02-24 18:39:00,48.4,29.6,30.18,WNW,301,4.0,4.0,48,0.00,,,0.00,Wunderground v.1.15,2013-02-24 04:39:00,
2013-02-24 18:49:00,47.8,29.5,30.18,North,352,3.0,3.0,49,0.00,,,0.00,Wunderground v.1.15,2013-02-24 04:49:00,
2013-02-24 18:54:00,47.5,29.3,30.18,NW,311,3.0,5.0,49,0.00,,,0.00,Wunderground v.1.15,2013-02-24 04:54:00,
2013-02-24 19:04:00,47.1,28.9,30.18,North,4,3.0,5.0,49,0.00,,,0.00,Wunderground v.1.15,2013-02-24 05:04:00,
2013-02-24 19:09:00,47.1,28.4,30.18,NNE,30,4.0,5.0,48,0.00,,,0.00,Wunderground v.1.15,2013-02-24 05:09:00,
2013-02-24 19:14:00,47.1,28.4,30.18,NNW,332,5.0,5.0,48,0.00,,,0.00,Wunderground v.1.15,2013-02-24 05:14:00,
2013-02-24 19:24:00,47.0,27.8,30.18,NW,315,5.0,6.0,47,0.00,,,0.00,Wunderground v.1.15,2013-02-24 05:24:00,
2013-02-24 19:34:00,47.0,27.3,30.18,NW,308,5.0,5.0,46,0.00,,,0.00,Wunderground v.1.15,2013-02-24 05:34:00,
2013-02-24 19:39:00,46.9,26.6,30.18,NNW,335,4.0,4.0,45,0.00,,,0.00,Wunderground v.1.15,2013-02-24 05:39:00,
2013-02-24 19:49:00,46.5,26.8,30.18,WNW,302,4.0,4.0,46,0.00,,,0.00,Wunderground v.1.15,2013-02-24 05:49:00,
2013-02-24 19:54:00,46.3,27.2,30.19,NW,322,3.0,4.0,47,0.00,,,0.00,Wunderground v.1.15,2013-02-24 05:54:00,
2013-02-24 20:04:00,46.0,25.8,30.18,NNW,338,3.0,4.0,45,0.00,,,0.00,Wunderground v.1.15,2013-02-24 06:04:00,
2013-02-24 20:14:00,46.1,25.4,30.19,NNW,340,2.0,3.0,44,0.00,,,0.00,Wunderground v.1.15,2013-02-24 06:14:00,
2013-02-24 20:19:00,45.9,25.2,30.19,NNW,328,3.0,3.0,44,0.00,,,0.00,Wunderground v.1.15,2013-02-24 06:19:00,
2013-02-24 20:24:00,45.7,25.0,30.19,NW,309,3.0,3.0,44,0.00,,,0.00,Wunderground v.1.15,2013-02-24 06:24:00,
2013-02-24 20:29:00,45.5,25.4,30.19,WNW,290,2.0,2.0,45,0.00,,,0.00,Wunderground v.1.15,2013-02-24 06:29:00,
2013-02-24 20:39:00,44.0,26.5,30.19,WNW,283,2.0,3.0,50,0.00,,,0.00,Wunderground v.1.15,2013-02-24 06:39:00,
2013-02-24 20:49:00,42.8,26.8,30.19,NW,308,2.0,2.0,53,0.00,,,0.00,Wunderground v.1.15,2013-02-24 06:49:00,
2013-02-24 20:54:00,42.9,26.0,30.19,WNW,294,3.0,4.0,51,0.00,,,0.00,Wunderground v.1.15,2013-02-24 06:54:00,
2013-02-24 21:05:00,42.4,26.5,30.19,WNW,289,4.0,5.0,53,0.00,,,0.00,Wunderground v.1.15,2013-02-24 07:05:00,
2013-02-24 21:14:00,41.6,27.5,30.18,WNW,290,4.0,4.0,57,0.00,,,0.00,Wunderground v.1.15,2013-02-24 07:14:00,
2013-02-24 21:24:00,41.7,27.1,30.18,NW,317,4.0,6.0,56,0.00,,,0.00,Wunderground v.1.15,2013-02-24 07:24:00,
2013-02-24 21:34:00,42.2,26.7,30.18,WNW,291,4.0,4.0,54,0.00,,,0.00,Wunderground v.1.15,2013-02-24 07:34:00,
2013-02-24 21:39:00,42.4,26.5,30.19,West,278,3.0,3.0,53,0.00,,,0.00,Wunderground v.1.15,2013-02-24 07:39:00,
2013-02-24 21:49:00,42.7,26.3,30.19,NNW,328,4.0,4.0,52,0.00,,,0.00,Wunderground v.1.15,2013-02-24 07:49:00,
2013-02-24 21:54:00,42.9,26.0,30.19,NNW,328,4.0,6.0,51,0.00,,,0.00,Wunderground v.1.15,2013-02-24 07:54:00,
2013-02-24 22:04:00,43.0,25.6,30.19,NW,312,4.0,5.0,50,0.00,,,0.00,Wunderground v.1.15,2013-02-24 08:04:00,
2013-02-24 22:14:00,43.1,25.7,30.19,WNW,295,4.0,4.0,50,0.00,,,0.00,Wunderground v.1.15,2013-02-24 08:14:00,
2013-02-24 22:24:00,42.8,25.4,30.19,WNW,290,4.0,4.0,50,0.00,,,0.00,Wunderground v.1.15,2013-02-24 08:24:00,
2013-02-24 22:34:00,42.7,25.8,30.19,NNW,328,4.0,4.0,51,0.00,,,0.00,Wunderground v.1.15,2013-02-24 08:34:00,
2013-02-24 22:39:00,42.4,26.0,30.19,NW,323,3.0,3.0,52,0.00,,,0.00,Wunderground v.1.15,2013-02-24 08:39:00,
2013-02-24 22:49:00,42.4,26.0,30.19,NNW,338,5.0,7.0,52,0.00,,,0.00,Wunderground v.1.15,2013-02-24 08:49:00,
2013-02-24 22:54:00,42.3,25.9,30.19,NNW,342,6.0,8.0,52,0.00,,,0.00,Wunderground v.1.15,2013-02-24 08:54:00,
2013-02-24 23:04:00,41.9,26.4,30.20,West,276,3.0,5.0,54,0.00,,,0.00,Wunderground v.1.15,2013-02-24 09:04:00,
2013-02-24 23:14:00,41.3,27.2,30.20,WNW,295,4.0,5.0,57,0.00,,,0.00,Wunderground v.1.15,2013-02-24 09:14:00,
2013-02-24 23:24:00,41.2,26.7,30.20,NNW,328,4.0,5.0,56,0.00,,,0.00,Wunderground v.1.15,2013-02-24 09:24:00,
2013-02-24 23:29:00,41.3,26.3,30.20,NW,312,4.0,5.0,55,0.00,,,0.00,Wunderground v.1.15,2013-02-24 09:29:00,
2013-02-24 23:39:00,42.3,25.9,30.20,NNW,330,6.0,7.0,52,0.00,,,0.00,Wunderground v.1.15,2013-02-24 09:39:00,
2013-02-24 23:49:00,42.3,26.4,30.20,NW,307,7.0,7.0,53,0.00,,,0.00,Wunderground v.1.15,2013-02-24 09:49:00,
2013-02-24 23:54:00,42.3,26.8,30.19,WNW,291,8.0,11.0,54,0.00,,,0.00,Wunderground v.1.15,2013-02-24 09:54:00,